Skip Navigation Links
NOAA logo - Click to go to the NOAA homepage
NOAA's National Weather Service
Alaska Aviation Weather Unit
  NWS logo - Click to go to the NWS homepage
Left Navbar Graphic     15 AKDT = 23 GMT

   
NOAA is celebrating 200 years of science, service, and stewardship. Visit the NOAA 200th celebration Web site to learn more.
USA.gov is the U.S. Government's official Web portal to all Federal, state and local government Web resources and services.
Facebook
NWS on Facebook

Important Change Regarding the AAWU Web Presence

 

Over the last several months, the AAWU has been working to navigate its webpages to a nationally supported server. Security, as well as other needs, have necessitated the change.  We have been given an extension for the site changeover while we diligently work at addressing feedback received. As of July 14, 2017, aawu.arh.noaa.gov will be discontinued. The new AAWU web address is weather.gov/aawu. It is now live and will run in-parallel with the old site until it is discontinued on July 14, 2017. Please continue to send any feedback or questions regarding the new webpages to nws.ar.aawu.webauthors@noaa.gov.  Thank you for your patience during this time of transition.
AAWU Home :: Display TAF Add Bookmark
TAF PADQ 192320Z 2000/2024  28018G28KT P6SM SKC
     FM200600 28009KT P6SM SKC
     FM202200 03007KT P6SM BKN200=

7073
FTAK31 PANC 192320
TAFAVD
TAF
METAR PADQ 191753Z 29014G26KT 10SM CLR 02/M08 A2932=

METAR PADQ 191853Z 28015G19KT 10SM CLR 03/M07 A2933=

METAR PADQ 191953Z 27027G39KT 10SM CLR 04/M08 A2932=

METAR PADQ 192053Z 27026G37KT 10SM CLR 04/M08 A2931=

METAR PADQ 192153Z 28015G31KT 10SM CLR 05/M08 A2933=

METAR PADQ 192253Z 27023G36KT 10SM CLR 04/M09 A2932=


NOAA's National Weather Service
Alaska Aviation Weather Unit
6930 Sand Lake Road
Anchorage, AK 99502-1845
Disclaimer
Credits
Glossary
Privacy Policy
About Us
Career Opportunities
Contact AAWU Internet Services Site last modified: April, 17th 2012